カタログに戻る

OPS 8480

TRANSIT 5B-6

運用中ナビゲーションPO
NORAD 1420·PAYLOAD·🇺🇸 United States

打ち上げ Jun 24, 1965 から Vandenberg Space Force Base

Loading…

次のパス (今後24時間)

TLE

最新Source: Space-Track

元期: Sep 14, 2026, 13:39 UTC

1 01420U 65048A   26257.56892985  .00000070  00000-0  89623-4 0  9993
2 01420  89.8713 285.0777 0073808 170.3413 354.3353 13.51920878 15530

AllMySatでOPS 8480をリアルタイム追跡

Download on the App Store